Weather History for Sauk Centre, MN

Change the Weather History Date:

Saturday, October 6, 2012

  Actual Average (KGHW) Record (KGHW)
Temperature  
Mean Temperature 33 °F -  
Max Temperature 42 °F 62 °F 87 °F (1961)
Min Temperature 24 °F 37 °F 24 °F (2001)
Degree Days  
Heating Degree Days 32    
Moisture  
Dew Point 24 °F    
Average Humidity 67    
Maximum Humidity 87    
Minimum Humidity 39    
Precipitation  
Precipitation 0.00 in - - ()
Sea Level Pressure  
Sea Level Pressure 30.24 in    
Wind  
Wind Speed 11 mph (NW)    
Max Wind Speed 16 mph    
Max Gust Speed 21 mph    
Visibility 10 miles    
Events      
Averages and records for this station are not official NWS values.
T = Trace of Precipitation, MM = Missing Value Source: NWS Daily Summary

Daily Weather History Graph

Daily Weather History Graph

Search for Another Location

Airport:

Trip Planner

Search our weather history database for the weather conditions in past years. The results will help you decide how hot, cold, wet, or windy it might be!

Date:

Astronomy

Oct. 06, 2012 Rise Set
Actual Time 7:25 AM CDT 6:49 PM CDT
Civil Twilight 6:55 AM CDT 7:19 PM CDT
Nautical Twilight 6:20 AM CDT 7:53 PM CDT
Astronomical Twilight 5:46 AM CDT 8:28 PM CDT
Moon 10:52 PM CDT (10/6) 1:34 PM CDT (10/6)
Length of Visible Light 12h 23m
Length of Day
11h 24m
Waning Gibbous, 65% of the Moon is Illuminated
Oct 6
Waning Gibbous
Oct 8
Last Quarter
Oct 15
New
Oct 21
First Quarter
Oct 29
Full

Hourly Weather History & Observations

Time (CDT) Temp. Windchill Dew Point Humidity Pressure Visibility Wind Dir Wind Speed Gust Speed Precip Events Conditions
12:15 AM 33.8 °F 24.8 °F 28.4 °F 81% 30.18 in 10.0 mi NW 12.7 mph 17.3 mph N/A   Overcast
12:35 AM 33.8 °F 24.8 °F 28.4 °F 81% 30.18 in 10.0 mi WNW 12.7 mph - N/A   Overcast
12:55 AM 33.8 °F 24.3 °F 28.4 °F 81% 30.18 in 10.0 mi NW 13.8 mph 18.4 mph N/A   Overcast
1:15 AM 33.8 °F 24.3 °F 28.4 °F 81% 30.18 in 10.0 mi NW 13.8 mph 20.7 mph N/A   Overcast
1:35 AM 33.8 °F 23.5 °F 28.4 °F 81% 30.19 in 10.0 mi NW 16.1 mph 20.7 mph N/A   Overcast
1:55 AM 33.8 °F 23.9 °F 28.4 °F 81% 30.19 in 10.0 mi NW 15.0 mph - N/A   Overcast
2:15 AM 33.8 °F 23.9 °F 28.4 °F 81% 30.19 in 10.0 mi NW 15.0 mph 20.7 mph N/A   Overcast
2:35 AM 33.8 °F 24.8 °F 28.4 °F 81% 30.19 in 10.0 mi NW 12.7 mph - N/A   Overcast
2:55 AM 33.8 °F 24.8 °F 28.4 °F 81% 30.19 in 10.0 mi NW 12.7 mph 18.4 mph N/A   Overcast
3:15 AM 33.8 °F 23.9 °F 28.4 °F 81% 30.19 in 10.0 mi NW 15.0 mph 18.4 mph N/A   Overcast
3:35 AM 32.0 °F 23.0 °F 28.4 °F 87% 30.19 in 10.0 mi NW 11.5 mph - N/A   Scattered Clouds
3:55 AM 32.0 °F 23.0 °F 28.4 °F 87% 30.21 in 10.0 mi NW 11.5 mph - N/A   Scattered Clouds
4:15 AM 32.0 °F 23.0 °F 28.4 °F 87% 30.21 in 10.0 mi NW 11.5 mph - N/A   Mostly Cloudy
4:35 AM 32.0 °F 22.5 °F 28.4 °F 87% 30.21 in 10.0 mi NW 12.7 mph - N/A   Mostly Cloudy
4:55 AM 32.0 °F 23.0 °F 28.4 °F 87% 30.21 in 10.0 mi NNW 11.5 mph - N/A   Mostly Cloudy
5:15 AM 32.0 °F 22.1 °F 28.4 °F 87% 30.22 in 10.0 mi NNW 13.8 mph - N/A   Overcast
5:35 AM 32.0 °F 22.1 °F 28.4 °F 87% 30.22 in 10.0 mi NNW 13.8 mph - N/A   Overcast
5:55 AM 32.0 °F 22.5 °F 28.4 °F 87% 30.23 in 10.0 mi NNW 12.7 mph - N/A   Overcast
6:15 AM 32.0 °F 21.6 °F 28.4 °F 87% 30.23 in 10.0 mi NNW 15.0 mph 18.4 mph N/A   Overcast
6:35 AM 32.0 °F 22.5 °F 28.4 °F 87% 30.24 in 10.0 mi NNW 12.7 mph - N/A   Overcast
6:55 AM 32.0 °F 24.8 °F 28.4 °F 87% 30.24 in 10.0 mi NNW 8.1 mph - N/A   Overcast
7:15 AM 32.0 °F 22.5 °F 28.4 °F 87% 30.25 in 10.0 mi NNW 12.7 mph - N/A   Overcast
7:35 AM 32.0 °F 24.8 °F 28.4 °F 87% 30.26 in 10.0 mi NNW 8.1 mph - N/A   Mostly Cloudy
7:55 AM 32.0 °F 24.2 °F 28.4 °F 87% 30.26 in 10.0 mi NW 9.2 mph - N/A   Mostly Cloudy
8:15 AM 32.0 °F 23.6 °F 28.4 °F 87% 30.27 in 10.0 mi NW 10.4 mph - N/A   Overcast
8:35 AM 32.0 °F 24.2 °F 28.4 °F 87% 30.28 in 10.0 mi NNW 9.2 mph - N/A   Overcast
8:55 AM 33.8 °F 24.8 °F 28.4 °F 81% 30.28 in 10.0 mi NNW 12.7 mph - N/A   Overcast
9:15 AM 33.8 °F 26.4 °F 26.6 °F 75% 30.29 in 10.0 mi North 9.2 mph 17.3 mph N/A   Overcast
9:55 AM 33.8 °F 24.8 °F 24.8 °F 70% 30.30 in 10.0 mi NNW 12.7 mph - N/A   Overcast
10:15 AM 33.8 °F 23.9 °F 23.0 °F 65% 30.31 in 10.0 mi NNW 15.0 mph 19.6 mph N/A   Overcast
10:35 AM 33.8 °F 25.8 °F 23.0 °F 65% 30.31 in 10.0 mi North 10.4 mph - N/A   Overcast
10:55 AM 33.8 °F 27.0 °F 23.0 °F 65% 30.31 in 10.0 mi NNW 8.1 mph - N/A   Overcast
11:15 AM 35.6 °F 29.2 °F 21.2 °F 56% 30.31 in 10.0 mi North 8.1 mph - N/A   Overcast
11:35 AM 35.6 °F 27.5 °F 21.2 °F 56% 30.31 in 10.0 mi NNW 11.5 mph - N/A   Overcast
11:55 AM 35.6 °F 28.6 °F 23.0 °F 60% 30.31 in 10.0 mi NW 9.2 mph - N/A   Overcast
12:15 PM 37.4 °F 29.8 °F 21.2 °F 52% 30.30 in 10.0 mi NNW 11.5 mph - N/A   Overcast
12:35 PM 37.4 °F 30.3 °F 21.2 °F 52% 30.30 in 10.0 mi North 10.4 mph - N/A   Overcast
12:55 PM 37.4 °F 30.3 °F 21.2 °F 52% 30.30 in 10.0 mi North 10.4 mph 16.1 mph N/A   Overcast
1:15 PM 39.2 °F 34.2 °F 21.2 °F 49% 30.30 in 10.0 mi NNW 6.9 mph 17.3 mph N/A   Mostly Cloudy
1:35 PM 39.2 °F 32.5 °F 21.2 °F 49% 30.29 in 10.0 mi North 10.4 mph - N/A   Overcast
1:55 PM 41.0 °F 34.3 °F 19.4 °F 42% 30.28 in 10.0 mi North 11.5 mph 17.3 mph N/A   Overcast
2:15 PM 41.0 °F 34.7 °F 21.2 °F 45% 30.27 in 10.0 mi North 10.4 mph - N/A   Overcast
2:35 PM 42.8 °F 37.0 °F 21.2 °F 42% 30.26 in 10.0 mi NW 10.4 mph - N/A   Overcast
2:55 PM 41.0 °F 34.7 °F 19.4 °F 42% 30.26 in 10.0 mi North 10.4 mph - N/A   Overcast
3:15 PM 41.0 °F 34.3 °F 21.2 °F 45% 30.26 in 10.0 mi NW 11.5 mph - N/A   Overcast
3:35 PM 42.8 °F 39.3 °F 21.2 °F 42% 30.25 in 10.0 mi North 5.8 mph - N/A   Overcast
3:55 PM 42.8 °F 41.1 °F 21.2 °F 42% 30.25 in 10.0 mi WNW 3.5 mph - N/A   Overcast
4:15 PM 42.8 °F 38.0 °F 21.2 °F 42% 30.24 in 10.0 mi NNW 8.1 mph - N/A   Mostly Cloudy
4:35 PM 42.8 °F 38.0 °F 19.4 °F 39% 30.24 in 10.0 mi NNW 8.1 mph - N/A   Mostly Cloudy
4:55 PM 42.8 °F 37.5 °F 19.4 °F 39% 30.24 in 10.0 mi WNW 9.2 mph - N/A   Overcast
5:15 PM 42.8 °F 37.0 °F 21.2 °F 42% 30.24 in 10.0 mi NW 10.4 mph - N/A   Overcast
5:35 PM 41.0 °F 35.2 °F 21.2 °F 45% 30.24 in 10.0 mi WNW 9.2 mph - N/A   Mostly Cloudy
5:55 PM 41.0 °F 34.3 °F 21.2 °F 45% 30.24 in 10.0 mi WNW 11.5 mph - N/A   Mostly Cloudy
6:15 PM 41.0 °F 35.8 °F 21.2 °F 45% 30.24 in 10.0 mi WNW 8.1 mph - N/A   Mostly Cloudy
6:35 PM 39.2 °F 33.6 °F 21.2 °F 49% 30.23 in 10.0 mi WNW 8.1 mph - N/A   Scattered Clouds
6:55 PM 37.4 °F 32.8 °F 21.2 °F 52% 30.24 in 10.0 mi WNW 5.8 mph - N/A   Clear
7:15 PM 35.6 °F 30.7 °F 21.2 °F 56% 30.24 in 10.0 mi WNW 5.8 mph - N/A   Clear
7:55 PM 32.0 °F 28.7 °F 21.2 °F 64% 30.24 in 10.0 mi WNW 3.5 mph - N/A   Clear
8:15 PM 32.0 °F 28.7 °F 21.2 °F 64% 30.24 in 10.0 mi WNW 3.5 mph - N/A   Clear
8:35 PM 28.4 °F - 19.4 °F 69% 30.25 in 10.0 mi Calm Calm - N/A   Clear
8:55 PM 30.2 °F 26.7 °F 21.2 °F 69% 30.25 in 10.0 mi West 3.5 mph - N/A   Clear
9:15 PM 30.2 °F - 21.2 °F 69% 30.24 in 10.0 mi Calm Calm - N/A   Clear
9:35 PM 28.4 °F 23.3 °F 19.4 °F 69% 30.24 in 10.0 mi West 4.6 mph - N/A   Clear
9:55 PM 28.4 °F 23.3 °F 19.4 °F 69% 30.24 in 10.0 mi West 4.6 mph - N/A   Clear
11:15 PM 26.6 °F - 19.4 °F 74% 30.23 in 10.0 mi Calm Calm - N/A   Clear
11:35 PM 24.8 °F - 19.4 °F 80% 30.22 in 10.0 mi Calm Calm - N/A   Clear
11:55 PM 26.6 °F - 19.4 °F 74% 30.22 in 10.0 mi Calm Calm - N/A   Clear